KB9GXK Weather Reports


time (UTC)temp
C
wind
direction
speed
KPH
gust
KPH
rain 1hr
cm
rain 24hr
cm
rain mn
cm
humidity
%
barometer
mb
20260906130215 18 35 0.0 0.0 0.00 0.00 0.00 96 1022.0
20260906125713 18 47 0.0 0.0 0.00 0.00 0.00 96 1022.0
20260906125212 18 104 0.0 0.0 0.00 0.00 0.00 96 1021.9
20260906124707 18 167 0.0 0.0 0.00 0.00 0.00 96 1022.0
20260906124202 18 109 0.0 0.0 0.00 0.00 0.00 96 1022.0
20260906123701 18 53 0.0 0.0 0.00 0.00 0.00 96 1021.8
20260906123156 18 88 0.0 0.0 0.00 0.00 0.00 96 1021.6
20260906122655 18 108 0.0 0.0 0.00 0.00 0.00 96 1021.6
20260906122151 18 78 0.0 0.0 0.00 0.00 0.00 96 1021.5
20260906121648 18 80 0.0 0.0 0.00 0.00 0.00 96 1021.5
20260906121144 18 39 0.0 0.0 0.00 0.00 0.00 96 1021.5
20260906120639 18 38 0.0 0.0 0.00 0.00 0.00 96 1021.4
20260906120136 17 40 0.0 0.0 0.00 0.00 0.00 96 1021.3
20260906115636 17 22 0.0 0.0 0.00 0.00 0.00 96 1021.4
20260906115126 17 36 0.0 0.0 0.00 0.00 0.00 96 1021.3
20260906114619 17 37 0.0 0.0 0.00 0.00 0.00 96 1021.2
20260906114114 17 31 0.0 0.0 0.00 0.00 0.00 96 1021.2
20260906113614 17 52 0.0 0.0 0.00 0.00 0.00 96 1021.0
20260906113109 17 44 0.0 0.0 0.00 0.00 0.00 96 1020.9
20260906112609 17 50 0.0 0.0 0.00 0.00 0.00 96 1021.0
20260906112106 17 40 0.0 0.0 0.00 0.00 0.00 96 1020.9
20260906111605 17 38 0.0 0.0 0.00 0.00 0.00 96 1021.2
20260906111101 17 30 0.0 0.0 0.00 0.00 0.00 96 1020.8
20260906110600 17 25 0.0 0.0 0.00 0.00 0.00 96 1020.8
20260906110059 17 25 0.0 0.0 0.00 0.00 0.00 96 1020.8
20260906105554 17 25 0.0 0.0 0.00 0.00 0.00 96 1020.5
20260906105051 17 25 0.0 0.0 0.00 0.00 0.00 96 1020.4
20260906104549 17 25 0.0 0.0 0.00 0.00 0.00 96 1020.6
20260906104044 17 25 0.0 0.0 0.00 0.00 0.00 96 1020.8
20260906103542 17 25 0.0 0.0 0.00 0.00 0.00 96 1020.6
20260906103037 17 25 0.0 0.0 0.00 0.00 0.00 96 1020.5
20260906102532 17 25 0.0 0.0 0.00 0.00 0.00 96 1020.6
20260906102027 17 25 0.0 0.0 0.00 0.00 0.00 96 1020.4
20260906101526 17 25 0.0 0.0 0.00 0.00 0.00 96 1020.5
20260906101021 18 54 0.0 0.0 0.00 0.00 0.00 96 1020.4
20260906100517 18 58 0.0 0.0 0.00 0.00 0.00 96 1020.2
20260906100012 17 52 0.0 0.0 0.00 0.00 0.00 96 1020.2
20260906095507 18 18 0.0 0.0 0.00 0.00 0.00 96 1020.1
20260906095002 18 39 0.0 0.0 0.00 0.00 0.00 96 1020.1
20260906094501 18 24 0.0 0.0 0.00 0.00 0.00 96 1020.2
20260906093957 17 19 0.0 0.0 0.00 0.00 0.00 96 1020.1
20260906093453 18 41 0.0 0.0 0.00 0.00 0.00 96 1020.3
20260906092953 18 22 0.0 1.6 0.00 0.00 0.00 96 1020.3
20260906092448 18 14 0.0 0.0 0.00 0.00 0.00 96 1020.3
20260906091943 17 263 0.0 0.0 0.00 0.00 0.00 96 1020.4
20260906091439 17 318 0.0 0.0 0.00 0.00 0.00 96 1020.3
20260906090935 17 248 0.0 0.0 0.00 0.00 0.00 96 1020.2
20260906090430 17 332 0.0 0.0 0.00 0.00 0.00 96 1020.2
20260906085924 17 43 0.0 0.0 0.00 0.00 0.00 96 1020.2
20260906085424 18 37 0.0 0.0 0.00 0.00 0.00 96 1020.2
20260906084923 18 47 0.0 0.0 0.00 0.00 0.00 96 1020.3
20260906084418 18 301 0.0 0.0 0.00 0.00 0.00 96 1020.3
20260906083917 18 329 0.0 0.0 0.00 0.00 0.00 96 1020.2
20260906083413 18 331 0.0 0.0 0.00 0.00 0.00 96 1020.1
20260906082912 17 305 0.0 0.0 0.00 0.00 0.00 96 1020.1
20260906082407 17 289 0.0 0.0 0.00 0.00 0.00 96 1020.2
20260906081903 18 274 0.0 0.0 0.00 0.00 0.00 96 1020.2
20260906081358 17 6 0.0 0.0 0.00 0.00 0.00 96 1020.1
20260906080854 17 16 0.0 0.0 0.00 0.00 0.00 96 1020.0
20260906080351 17 16 0.0 0.0 0.00 0.00 0.00 95 1020.0
20260906075850 17 288 0.0 0.0 0.00 0.00 0.00 95 1019.8
20260906075345 17 288 0.0 0.0 0.00 0.00 0.00 95 1019.6
20260906074840 17 282 0.0 0.0 0.00 0.00 0.00 95 1019.8
20260906074340 17 282 0.0 0.0 0.00 0.00 0.00 95 1019.9
20260906073838 17 257 0.0 0.0 0.00 0.00 0.00 95 1019.9
20260906073333 17 282 0.0 0.0 0.00 0.00 0.00 95 1019.9
20260906072830 17 226 0.0 0.0 0.00 0.00 0.00 95 1019.8
20260906072325 17 226 0.0 0.0 0.00 0.00 0.00 95 1020.0
20260906071821 17 242 0.0 0.0 0.00 0.00 0.00 95 1019.6
20260906071315 17 242 0.0 0.0 0.00 0.00 0.00 95 1019.9
20260906070813 17 250 0.0 0.0 0.00 0.00 0.00 95 1019.8
20260906070308 17 328 0.0 0.0 0.00 0.00 0.00 95 1019.8
20260906065808 17 328 0.0 0.0 0.00 0.00 0.00 95 1019.9
20260906065305 17 328 0.0 0.0 0.00 0.00 0.00 95 1019.9
20260906064759 18 328 0.0 0.0 0.00 0.00 0.00 95 1019.9
20260906064255 17 328 0.0 0.0 0.00 0.00 0.00 95 1020.0
20260906063755 18 328 0.0 0.0 0.00 0.00 0.00 95 1020.2
20260906063251 17 328 0.0 0.0 0.00 0.00 0.00 95 1020.1
20260906062745 17 328 0.0 0.0 0.00 0.00 0.00 95 1019.9
20260906062244 18 328 0.0 0.0 0.00 0.00 0.00 95 1019.8
20260906061740 18 328 0.0 0.0 0.00 0.00 0.00 95 1019.9
20260906061237 18 328 0.0 0.0 0.00 0.00 0.00 95 1020.1
20260906060732 18 328 0.0 0.0 0.00 0.00 0.00 94 1020.1
20260906060229 18 327 0.0 0.0 0.00 0.00 0.00 94 1020.1
20260906055725 18 327 0.0 0.0 0.00 0.00 0.00 94 1020.0
20260906055220 18 328 0.0 0.0 0.00 0.00 0.00 94 1019.9
20260906054715 18 328 0.0 0.0 0.00 0.00 0.00 94 1019.9
20260906054210 18 328 0.0 0.0 0.00 0.00 0.00 94 1019.9
20260906053707 18 329 0.0 0.0 0.00 0.00 0.00 94 1019.9
20260906053201 18 330 0.0 0.0 0.00 0.00 0.00 94 1019.9
20260906052656 18 330 0.0 0.0 0.00 0.00 0.00 94 1019.7
20260906052153 18 330 0.0 0.0 0.00 0.00 0.00 94 1019.6
20260906051650 18 330 0.0 0.0 0.00 0.00 0.00 94 1019.8
20260906051149 18 14 0.0 0.0 0.00 0.00 0.00 94 1019.8
20260906050644 18 14 0.0 0.0 0.00 0.00 0.00 94 1019.8
20260906050139 18 14 0.0 0.0 0.00 0.00 0.00 94 1019.6
20260906045638 18 13 0.0 0.0 0.00 0.00 0.00 94 1019.6
20260906045133 19 78 0.0 0.0 0.00 0.00 0.00 94 1019.6
20260906044629 19 54 0.0 0.0 0.00 0.00 0.00 94 1019.6
20260906044124 19 95 0.0 0.0 0.00 0.00 0.00 94 1019.4
20260906043620 19 94 0.0 0.0 0.00 0.00 0.00 94 1019.4
20260906043116 19 30 0.0 0.0 0.00 0.00 0.00 94 1019.2
20260906042615 20 26 0.0 0.0 0.00 0.00 0.00 94 1019.1
20260906042109 20 58 0.0 0.0 0.00 0.00 0.00 94 1019.4
20260906041606 20 154 0.0 1.6 0.00 0.00 0.00 94 1019.3
20260906041100 20 333 0.0 0.0 0.00 0.00 0.00 94 1019.3
20260906040556 20 33 3.2 4.8 0.00 0.00 0.00 94 1019.3
20260906040051 20 33 0.0 0.0 0.00 0.00 0.00 94 1019.1
20260906035547 20 30 1.6 1.6 0.00 0.00 0.00 94 1019.1
20260906035043 20 9 0.0 1.6 0.00 0.00 0.00 94 1019.2
20260906034542 20 31 0.0 1.6 0.00 0.00 0.00 94 1019.1
20260906034037 20 28 0.0 0.0 0.00 0.00 0.00 93 1019.3
20260906033532 20 331 0.0 0.0 0.00 0.00 0.00 93 1018.9
20260906033028 20 38 0.0 0.0 0.00 0.00 0.00 93 1019.1
20260906032524 20 49 0.0 0.0 0.00 0.00 0.00 93 1019.1
20260906032018 20 53 0.0 1.6 0.00 0.00 0.00 93 1019.0
20260906031514 20 350 0.0 0.0 0.00 0.00 0.00 93 1019.1
20260906031009 20 16 0.0 0.0 0.00 0.00 0.00 93 1019.1
20260906030503 20 39 0.0 1.6 0.00 0.00 0.00 93 1018.8
20260906025958 20 3 3.2 4.8 0.00 0.00 0.00 93 1018.8
20260906025457 20 23 0.0 1.6 0.00 0.00 0.00 92 1018.9
20260906024955 20 18 1.6 1.6 0.00 0.00 0.00 92 1018.9
20260906024450 20 2 0.0 0.0 0.00 0.00 0.00 92 1019.0
20260906023945 20 6 0.0 0.0 0.00 0.00 0.00 92 1019.2
20260906023441 20 86 0.0 1.6 0.00 0.00 0.00 92 1019.1
20260906022936 20 49 0.0 0.0 0.00 0.00 0.00 92 1018.9
20260906022432 20 85 0.0 1.6 0.00 0.00 0.00 91 1019.1
20260906021927 20 351 0.0 0.0 0.00 0.00 0.00 91 1018.9
20260906021426 20 10 1.6 1.6 0.00 0.00 0.00 91 1019.2
20260906020921 20 302 0.0 0.0 0.00 0.00 0.00 91 1019.2
20260906020415 20 47 0.0 0.0 0.00 0.00 0.00 91 1019.2
20260906015909 20 7 0.0 1.6 0.00 0.00 0.00 90 1019.1
20260906015409 20 4 3.2 4.8 0.00 0.00 0.00 90 1019.1
20260906014908 20 14 3.2 3.2 0.00 0.00 0.00 90 1019.0
20260906014403 20 202 0.0 1.6 0.00 0.00 0.00 90 1019.0
20260906013859 20 39 1.6 1.6 0.00 0.00 0.00 90 1019.2
20260906013354 20 90 0.0 0.0 0.00 0.00 0.00 90 1019.0
20260906012850 20 40 3.2 3.2 0.00 0.00 0.00 90 1019.1
20260906012345 20 340 1.6 1.6 0.00 0.00 0.00 89 1019.1
20260906011844 20 24 1.6 3.2 0.00 0.00 0.00 89 1018.8
20260906011339 21 26 1.6 3.2 0.00 0.00 0.00 89 1019.0
20260906010835 21 284 0.0 0.0 0.00 0.00 0.00 89 1019.1
20260906010331 21 354 1.6 3.2 0.00 0.00 0.00 89 1019.1
20260906005827 21 14 0.0 1.6 0.00 0.00 0.00 89 1019.0
20260906005326 21 8 1.6 3.2 0.00 0.00 0.00 89 1018.8
20260906004825 21 318 0.0 0.0 0.00 0.00 0.00 89 1018.8
20260906004324 21 31 3.2 3.2 0.00 0.00 0.00 89 1018.7
20260906003820 21 24 1.6 1.6 0.00 0.00 0.00 89 1018.9
20260906003315 21 28 3.2 3.2 0.00 0.00 0.00 89 1018.8
20260906002811 21 26 0.0 0.0 0.00 0.00 0.00 90 1018.7
20260906002310 21 356 0.0 0.0 0.00 0.00 0.00 90 1018.8
20260906001806 21 342 1.6 3.2 0.00 0.00 0.00 90 1018.8
20260906001301 21 24 1.6 1.6 0.00 0.00 0.00 90 1018.6
20260906000755 21 343 0.0 0.0 0.00 0.00 0.00 90 1018.6
20260906000250 21 46 0.0 1.6 0.00 0.00 0.00 90 1018.6
20260905235745 21 71 1.6 1.6 0.00 0.00 0.00 90 1018.8
20260905235244 21 335 1.6 1.6 0.00 0.00 0.00 90 1018.8
20260905234740 21 17 0.0 1.6 0.00 0.00 0.00 90 1018.8
20260905234235 21 120 0.0 0.0 0.00 0.00 0.00 90 1018.7
20260905233731 21 28 1.6 1.6 0.00 0.00 0.00 90 1018.9
20260905233230 21 354 1.6 1.6 0.00 0.00 0.00 90 1018.9
20260905232730 21 2 4.8 6.4 0.00 0.00 0.00 89 1018.8
20260905232226 21 346 1.6 3.2 0.00 0.00 0.00 89 1018.7
20260905231721 21 296 1.6 1.6 0.00 0.00 0.00 88 1018.7
20260905231217 21 77 0.0 1.6 0.00 0.00 0.00 88 1018.6
20260905230713 21 57 1.6 1.6 0.00 0.00 0.00 88 1018.7
20260905230210 22 57 0.0 1.6 0.00 0.00 0.00 87 1018.6
20260905225710 22 2 3.2 4.8 0.00 0.00 0.00 87 1018.5
20260905225206 22 45 3.2 4.8 0.00 0.00 0.00 86 1018.5
20260905224705 22 319 1.6 1.6 0.00 0.00 0.00 86 1018.5
20260905224200 22 8 1.6 1.6 0.00 0.00 0.00 86 1018.5
20260905223656 22 14 1.6 1.6 0.00 0.00 0.00 86 1018.5
20260905223153 22 355 1.6 1.6 0.00 0.00 0.00 86 1018.5
20260905222648 22 6 3.2 4.8 0.00 0.00 0.00 85 1018.4
20260905222148 22 114 3.2 3.2 0.00 0.00 0.00 85 1018.5
20260905221644 22 343 0.0 0.0 0.00 0.00 0.00 85 1018.5
20260905221141 22 97 1.6 3.2 0.00 0.00 0.00 85 1018.5
20260905220636 22 18 3.2 3.2 0.00 0.00 0.00 85 1018.5
20260905220132 22 14 3.2 3.2 0.00 0.00 0.00 84 1018.3
20260905215631 22 61 1.6 1.6 0.00 0.00 0.00 85 1018.4
20260905215127 22 35 3.2 4.8 0.00 0.00 0.00 84 1018.3
20260905214623 22 320 3.2 3.2 0.00 0.00 0.00 84 1018.2
20260905214118 23 22 1.6 1.6 0.00 0.00 0.00 84 1018.2
20260905213613 22 7 1.6 3.2 0.00 0.00 0.00 84 1018.1
20260905213108 23 64 4.8 6.4 0.00 0.00 0.00 84 1017.6
20260905212603 23 18 1.6 3.2 0.00 0.00 0.00 82 1017.7
20260905212103 24 6 3.2 4.8 0.00 0.00 0.00 81 1017.5
20260905211558 23 23 0.0 0.0 0.00 0.00 0.00 83 1017.8
20260905211053 23 14 1.6 3.2 0.00 0.00 0.00 82 1017.6
20260905210549 24 24 1.6 1.6 0.00 0.00 0.00 81 1017.7
20260905210044 24 32 6.4 11.3 0.00 0.00 0.00 82 1017.8
20260905205543 25 267 3.2 3.2 0.00 0.00 0.00 82 1017.7
20260905205043 25 90 6.4 12.9 0.00 0.00 0.00 82 1017.7
20260905204538 25 8 6.4 9.7 0.00 0.00 0.00 81 1017.6
20260905204033 25 358 3.2 4.8 0.00 0.00 0.00 81 1017.5
20260905203532 25 355 3.2 4.8 0.00 0.00 0.00 81 1017.5
20260905203028 26 40 1.6 3.2 0.00 0.00 0.00 78 1017.5
20260905202523 25 3 3.2 4.8 0.00 0.00 0.00 80 1017.7
20260905202019 26 341 3.2 4.8 0.00 0.00 0.00 79 1017.7
20260905201514 25 0 3.2 3.2 0.00 0.00 0.00 80 1017.8
20260905201014 25 27 3.2 3.2 0.00 0.00 0.00 80 1017.7
20260905200509 26 21 8.0 11.3 0.00 0.00 0.00 80 1017.8
20260905200009 25 251 3.2 4.8 0.00 0.00 0.00 81 1017.9
20260905195503 25 355 4.8 6.4 0.00 0.00 0.00 81 1017.9
20260905194958 26 14 8.0 9.7 0.00 0.00 0.00 78 1017.8
20260905194457 26 11 1.6 4.8 0.00 0.00 0.00 80 1017.6
20260905193952 25 49 1.6 3.2 0.00 0.00 0.00 81 1017.6
20260905193452 25 21 3.2 3.2 0.00 0.00 0.00 81 1017.8
20260905192947 25 19 3.2 3.2 0.00 0.00 0.00 82 1017.8
20260905192443 25 59 1.6 3.2 0.00 0.00 0.00 81 1017.7
20260905191939 25 52 1.6 3.2 0.00 0.00 0.00 81 1017.8
20260905191438 26 64 4.8 6.4 0.00 0.00 0.00 80 1017.8
20260905190937 26 42 1.6 3.2 0.00 0.00 0.00 80 1017.7
20260905190435 26 123 3.2 3.2 0.00 0.00 0.00 78 1017.8
20260905185934 26 43 1.6 3.2 0.00 0.00 0.00 78 1017.9
20260905185429 26 32 1.6 3.2 0.00 0.00 0.00 77 1017.9
20260905184927 25 199 0.0 1.6 0.00 0.00 0.00 79 1018.0
20260905184422 25 59 0.0 0.0 0.00 0.00 0.00 81 1018.3
20260905183921 25 15 3.2 3.2 0.00 0.00 0.00 80 1018.1
20260905183416 25 41 3.2 3.2 0.00 0.00 0.00 81 1018.2
20260905182911 25 67 1.6 3.2 0.00 0.00 0.00 81 1018.1
20260905182405 25 30 3.2 3.2 0.00 0.00 0.00 82 1018.3
20260905181901 24 52 0.0 1.6 0.00 0.00 0.00 84 1018.2
20260905181400 24 343 1.6 3.2 0.00 0.00 0.00 84 1018.0
20260905180859 24 3 1.6 1.6 0.00 0.00 0.00 84 1018.1
20260905180354 23 50 3.2 4.8 0.00 0.00 0.00 85 1017.9
20260905175849 23 344 3.2 4.8 0.00 0.00 0.00 85 1018.1
20260905175344 23 32 3.2 4.8 0.00 0.00 0.00 85 1018.0
20260905174839 23 0 1.6 1.6 0.00 0.00 0.00 85 1018.0
20260905174335 23 46 0.0 0.0 0.00 0.00 0.00 85 1018.1
20260905173830 23 31 3.2 3.2 0.00 0.00 0.00 85 1017.8
20260905173327 25 18 1.6 1.6 0.00 0.00 0.00 83 1018.2
20260905172826 24 31 0.0 1.6 0.00 0.00 0.00 83 1018.2
20260905172324 24 73 0.0 0.0 0.00 0.00 0.00 84 1018.2
20260905171820 23 20 1.6 1.6 0.00 0.00 0.00 84 1018.1
20260905171317 24 15 3.2 3.2 0.00 0.00 0.00 84 1018.2
20260905170813 24 53 4.8 6.4 0.00 0.00 0.00 84 1018.3
20260905170308 23 353 0.0 0.0 0.00 0.00 0.00 85 1018.1
20260905165807 23 18 0.0 1.6 0.00 0.00 0.00 84 1018.4
20260905165306 24 13 1.6 4.8 0.00 0.00 0.00 83 1018.3
20260905164804 23 10 1.6 1.6 0.00 0.00 0.00 84 1018.3
20260905164304 24 20 3.2 4.8 0.00 0.00 0.00 83 1018.3
20260905163759 24 21 3.2 3.2 0.00 0.00 0.00 82 1018.2
20260905163256 24 6 1.6 3.2 0.00 0.00 0.00 82 1018.1
20260905162751 24 5 0.0 0.0 0.00 0.00 0.00 82 1018.3
20260905162251 24 68 1.6 1.6 0.00 0.00 0.00 82 1018.3
20260905161745 24 22 3.2 3.2 0.00 0.00 0.00 83 1018.1
20260905161244 23 18 3.2 3.2 0.00 0.00 0.00 83 1018.2
20260905160737 23 344 1.6 3.2 0.00 0.00 0.00 84 1018.2
20260905160238 23 59 0.0 0.0 0.00 0.00 0.00 83 1018.3
20260905155738 24 56 3.2 4.8 0.00 0.00 0.00 83 1018.4
20260905155236 23 47 1.6 1.6 0.00 0.00 0.00 84 1018.2
20260905154731 23 50 0.0 0.0 0.00 0.00 0.00 84 1018.1
20260905154227 23 27 1.6 1.6 0.00 0.00 0.00 84 1018.1
20260905153717 23 17 0.0 0.0 0.00 0.00 0.00 85 1018.1
20260905153213 23 20 0.0 0.0 0.00 0.00 0.00 86 1018.1
20260905152713 23 26 0.0 1.6 0.00 0.00 0.00 86 1017.9
20260905152207 23 37 3.2 3.2 0.00 0.00 0.00 86 1017.8
20260905151707 23 11 0.0 1.6 0.00 0.00 0.00 86 1018.0
20260905151202 23 35 1.6 3.2 0.00 0.00 0.00 86 1017.8
20260905150658 23 24 1.6 1.6 0.00 0.00 0.00 87 1017.9
20260905150156 23 49 0.0 0.0 0.00 0.00 0.00 87 1017.9
20260905145654 23 43 4.8 6.4 0.00 0.00 0.00 86 1017.7
20260905145149 23 20 1.6 3.2 0.00 0.00 0.00 86 1017.8
20260905144649 23 42 1.6 3.2 0.00 0.00 0.00 85 1017.7
20260905144143 23 11 1.6 1.6 0.00 0.00 0.00 85 1017.5
20260905143643 23 27 1.6 3.2 0.00 0.00 0.00 86 1017.5
20260905143143 23 31 0.0 0.0 0.00 0.00 0.00 87 1017.4
20260905142641 23 55 0.0 1.6 0.00 0.00 0.00 88 1017.6
20260905142136 23 68 1.6 1.6 0.00 0.00 0.00 89 1017.5
20260905141636 22 24 1.6 1.6 0.00 0.00 0.00 89 1017.4
20260905141133 22 36 0.0 0.0 0.00 0.00 0.00 90 1017.4
20260905140627 22 1 1.6 1.6 0.00 0.00 0.00 90 1017.3
20260905140127 22 5 4.8 9.7 0.00 0.00 0.00 89 1017.3
20260905135617 23 115 1.6 3.2 0.00 0.00 0.00 90 1017.1
20260905135112 22 76 1.6 3.2 0.00 0.00 0.00 90 1017.3
20260905134606 22 11 1.6 1.6 0.00 0.00 0.00 91 1017.2
20260905134105 22 15 3.2 4.8 0.00 0.00 0.00 92 1017.3
20260905133601 22 353 3.2 4.8 0.00 0.00 0.00 93 1017.2
20260905133055 22 20 1.6 1.6 0.00 0.00 0.00 94 1017.5
20260905132555 22 65 1.6 1.6 0.00 0.00 0.00 94 1017.8
20260905132049 22 353 1.6 1.6 0.00 0.00 0.00 95 1017.6
20260905131545 22 54 3.2 3.2 0.00 0.00 0.00 95 1017.4
20260905131040 22 42 0.0 0.0 0.00 0.00 0.00 95 1017.2